Regional Weather Roundup
Issued by NWS

Home | Current Version | Previous Version | Graphics & Text | Print | Product List | Glossary On
Versions: 1 2 3 4 5 6 7 8 9 10 11 12 13 14 15 16 17 18 19 20 21 22 23 24 25 26 27 28 29 30 31 32 33 34 35 36 37 38 39 40 41 42 43 44 45 46 47 48 49 50
000
ASUS43 KLOT 270803
RWRIL

ILLINOIS REGIONAL WEATHER ROUNDUP
NATIONAL WEATHER SERVICE CHICAGO/ROMEOVILLE IL
300 AM CDT MON MAR 27 2017

NOTE: "FAIR" INDICATES FEW OR NO CLOUDS BELOW 12,000 FEET WITH NO
SIGNIFICANT WEATHER AND/OR OBSTRUCTIONS TO VISIBILITY.

* THESE STATIONS ARE NOT UNDER NWS QUALITY CONTROL. THEY ALSO MAY NOT
  REPORT WEATHER SUCH AS PRECIPITATION OR FOG.

ILZ001-002-007-009-015-016-024-270900-
NORTHWEST ILLINOIS

CITY           SKY/WX    TMP DP  RH WIND       PRES   REMARKS
MOLINE         CLOUDY    48  45  89 W7        29.93R
STERLING*      CLOUDY    47  46  97 W6        29.92S
SAVANNA*       CLOUDY    46  45  96 CALM      29.91R FOG
$$

ILZ003-004-008-010-011-017-018-270900-
NORTH CENTRAL ILLINOIS

CITY           SKY/WX    TMP DP  RH WIND       PRES   REMARKS
ROCKFORD       CLOUDY    46  44  93 N3        29.92S FOG
FREEPORT*      CLOUDY    44  44  99 CALM      29.91F FOG
ROCHELLE*      CLOUDY    47  47  98 W7        29.91S
DE KALB*       CLOUDY    48  47  99 W8        29.90F FOG
PERU*          CLOUDY    47  46  93 W7        29.92S FOG
$$

ILZ005-006-012>014-019>023-270900-
NORTHEAST ILLINOIS

CITY           SKY/WX    TMP DP  RH WIND       PRES   REMARKS
CHICAGO-OHARE  CLOUDY    52  49  89 NW8       29.88F FOG
CHICAGO-MIDWAY CLOUDY    51  50  96 SW9       29.90R FOG
AURORA         CLOUDY    50  48  93 W10       29.90F FOG
LANSING*       CLOUDY    50  50 100 W9        29.91S FOG
WAUKEGAN       CLOUDY    44  44 100 CALM      29.89R FOG
DUPAGE AIRPORT CLOUDY    50  50 100 W7        29.89R FOG
WHEELING       CLOUDY    50  50 100 NW3       29.89F
MORRIS*        CLOUDY    49  48  95 CALM      29.91S FOG
$$

LMZ740>746-270900-
SOUTHERN LAKE MICHIGAN

STATION/POSITION SKY/WX   TEMP    WIND        PRES    VSBY  WAVE
                          AIR SEA DIR/SP/G                  HT/PER
                          (F)     (DEG/KT/KT) (MB)    (MI)  (FT/S)
HARRISON CRIB              51     250/ 13/ 15   N/A
BURNHAM HARBOR             50     260/  7/ 11   N/A
CALUMET HARBOR             50     230/  6/ 11 1012.0R
BURNS HARBOR               50     240/ 11/ 14 1013.2R
MICHIGAN CITY              49     200/ 10/ 12   N/A
$$

ILZ025>027-034>036-040-047-049-050-058-095>099-270900-
WEST-CENTRAL ILLINOIS

CITY           SKY/WX    TMP DP  RH WIND       PRES   REMARKS
QUINCY         CLOUDY    47  45  93 CALM      29.92F
GALESBURG*     MOCLDY    45  45  99 CALM      29.93S FOG
MACOMB*        CLOUDY    47  47  99 W3        29.95F
JACKSONVILLE*  CLOUDY    47  46  95 CALM      29.93F
PITTSFIELD*    CLOUDY    47  46  95 CALM      29.93F
$$

ILZ028>032-037-038-041>044-048-051>054-059>061-270900-
CENTRAL ILLINOIS

CITY           SKY/WX    TMP DP  RH WIND       PRES   REMARKS
PONTIAC        CLOUDY    50  49  98 SW7       29.95R
BLOOMINGTON    CLOUDY    48  46  93 W6        29.95R
DECATUR        CLOUDY    48  46  93 S3        29.95S
PEORIA         CLOUDY    48  47  96 SW6       29.94S
SPRINGFIELD    MOCLDY    49  47  93 CALM      29.94F
TAYLORVILLE    NOT AVBL
$$

ILZ033-039-045-046-055>057-062-063-270900-
EAST-CENTRAL ILLINOIS

CITY           SKY/WX    TMP DP  RH WIND       PRES   REMARKS
CHAMPAIGN      CLOUDY    48  46  93 W5        29.95R
RANTOUL*       CLOUDY    50  49  96 SW5       29.95S FOG
MATTOON        MOCLDY    50  49  96 W3        29.95S
$$

ILZ079-100>102-270900-
SOUTHWEST ILLINOIS

CITY           SKY/WX    TMP DP  RH WIND       PRES   REMARKS
BELLEVILLE     MOCLDY    46  46 100 CALM      29.90F
CAHOKIA*       PTCLDY    48  46  93 CALM      29.90F
SPARTA*        CLOUDY    49  47  92 E3        29.92F
$$

ILZ064>066-069>071-074>076-080>082-084>086-088>090-092>094-270900-
SOUTH-CENTRAL ILLINOIS

CITY           SKY/WX    TMP DP  RH WIND       PRES   REMARKS
CARBONDALE     CLOUDY    46  45  96 E5        29.90F
CAIRO*         MOCLDY    50  49  97 NE3       29.91F
EFFINGHAM*     PTCLDY    45  45 100 CALM      29.96F FOG
MARION         PTCLDY    50  46  87 CALM      29.92F
MT. VERNON     CLOUDY    43  43 100 CALM      29.93F
CENTRALIA*     PTCLDY    47  46  95 CALM      29.92F
SALEM*           N/A     46  45  95 CALM      29.93F FOG
$$

ILZ067-068-072-073-078-083-087-091-270900-
SOUTHEAST ILLINOIS

CITY           SKY/WX    TMP DP  RH WIND       PRES   REMARKS
LAWRENCEVILLE  FOG       44  44 100 CALM      29.96S VSB 1/4
FLORA*         CLOUDY    46  45  95 CALM      29.95F
FAIRFIELD*     PTCLDY    46  46  99 CALM      29.94F
HARRISBURG*    PTCLDY    46  45  97 CALM      29.95F
ROBINSON*      CLEAR     43  43 100 CALM      29.96F FOG
CARMI*         CLOUDY    45  45 100 S3        29.95F
$$

ABBREVIATIONS USED IN REMARKS
   TC - TEMPERATURE IN CELSIUS
  WCI - WIND CHILL INDEX
   HX - HEAT INDEX
  VSB - VISIBILITY
$$




USA.gov is the U.S. government's official web portal to all federal, state and local government web resources and services.